sat.trackr.live / text

‹ back to catalog

STARLINK-37160

NORAD 68282 · 2026-055W

PAYLOAD ACTIVE UNKNOWN

§ Identity

Operator
Country
US
Launch date
2026-03-19
Launch site
AFETR
Launch vehicle
Mass (kg)
RCS (m²)

Purposes: comms

External: N2YO · Heavens-Above · Gunter

§ Orbital elements

Epoch: 2026-05-24T18:14:15.730656Z

Period
93.85 min
Inclination
53.1601°
Eccentricity
0.0000901
Mean motion
15.34406016 rev/d
Perigee alt
462.1 km
Apogee alt
463.3 km
Semi-major
6,840.8 km
B*
6.3242e-4
RAAN
324.7694°
Arg perigee
94.6011°
Mean anomaly
265.5094°
Rev number
1,159

§ Raw data

STARLINK-371601 68282U 26055W   26144.75990429  .00021055  00000+0  63242-3 0  99982 68282  53.1601 324.7694 0000901  94.6011 265.5094 15.34406016 11597

JSON: /api/v1/satellites/68282 · /tle

For live sub-satellite position, see the globe view (requires WebGL).

§ Visibility from observer

Set your observer location to see the next 7 days of passes ≥ 10°. The values pass through the URL so the page stays shareable.

No JS? Fill the form by hand. The geolocation button needs JavaScript.